Weather reports worldwide

Advertisment
Catania/Sigonella, Italy (16459): temperature & dewpoint: 24.05.2020 23:00:00 - 30.05.2020 23:00:00 (CEST)Catania/Sigonella, Italy (16459): wind speed: 24.05.2020 23:00:00 - 30.05.2020 23:00:00 (CEST)Catania/Sigonella, Italy (16459): wind direction: 24.05.2020 23:00:00 - 30.05.2020 23:00:00 (CEST)Catania/Sigonella, Italy (16459): reduced air pressure: 24.05.2020 23:00:00 - 30.05.2020 23:00:00 (CEST)Catania/Sigonella, Italy (16459): visibility: 24.05.2020 23:00:00 - 30.05.2020 23:00:00 (CEST)
Date & Time tt [°C] td [°C] ff [km/h] ff [kn] dd ppp [hPa] vv [km]
30.05.2020 23:00:00 - - - - - - -
30.05.2020 22:00:00 17,0 17,0 18 10 ENE - 10
30.05.2020 21:00:00 17,0 17,0 24 13 ENE - 10
30.05.2020 20:00:00 18,8 17,3 16 9 E 1013,5 15
30.05.2020 19:00:00 20,0 17,0 21 11 ESE - 10
30.05.2020 18:00:00 21,0 17,0 18 10 E - 10
30.05.2020 17:00:00 19,4 17,9 24 13 ESE 1013,5 15
30.05.2020 16:00:00 20,0 19,0 29 16 ESE - 10
30.05.2020 15:00:00 22,0 18,0 28 15 E - 10
30.05.2020 14:00:00 20,0 18,1 24 13 E 1015,0 16
30.05.2020 13:00:00 20,0 16,0 21 11 E - 10
30.05.2020 12:00:00 21,0 13,0 21 11 E - 10
30.05.2020 11:00:00 21,0 9,6 9 5 W 1016,0 16
30.05.2020 10:00:00 20,0 10,0 5 3 W - 10
30.05.2020 09:00:00 18,0 14,0 5 3 W - 10
30.05.2020 08:00:00 16,2 13,9 9 5 WNW 1016,9 10
30.05.2020 07:00:00 11,0 11,0 5 3 W - 10
30.05.2020 06:00:00 11,0 11,0 11 6 W - 10
30.05.2020 05:00:00 11,2 11,2 8 4 W 1016,9 10
30.05.2020 04:00:00 12,0 12,0 9 5 W - 10
30.05.2020 03:00:00 12,0 12,0 8 4 W - 10
30.05.2020 02:00:00 14,2 14,2 11 6 W 1017,5 10
30.05.2020 01:00:00 15,0 15,0 8 4 WNW - 10
30.05.2020 00:00:00 15,0 15,0 9 5 W - 10
29.05.2020 23:00:00 14,6 14,6 5 3 W 1018,1 10
29.05.2020 22:00:00 15,0 15,0 5 3 SW - 10
29.05.2020 21:00:00 16,0 14,0 9 5 SW - 10
29.05.2020 20:00:00 18,0 12,9 8 4 E 1017,4 15
29.05.2020 19:00:00 20,0 6,0 15 8 ENE - 10
29.05.2020 18:00:00 20,0 11,0 21 11 ENE - 10
29.05.2020 17:00:00 20,4 12,9 22 12 ENE 1017,8 15
29.05.2020 16:00:00 19,0 10,0 22 12 ENE - 10
29.05.2020 15:00:00 20,0 6,0 29 16 ENE - 10
29.05.2020 14:00:00 20,8 8,1 29 16 ENE 1018,5 15
29.05.2020 13:00:00 23,0 3,0 8 4 SW - 10
29.05.2020 12:00:00 24,0 6,0 16 9 W - 10
29.05.2020 11:00:00 22,0 5,4 5 3 W 1019,5 15
29.05.2020 10:00:00 21,0 9,0 9 5 WSW - 10
29.05.2020 09:00:00 18,0 8,0 8 4 WNW - 10
29.05.2020 08:00:00 15,4 8,4 11 6 W 1020,8 10
29.05.2020 07:00:00 13,0 8,0 9 5 W - 10
29.05.2020 06:00:00 10,0 9,0 9 5 W - 10
29.05.2020 05:00:00 10,0 8,4 13 7 W 1020,8 10
29.05.2020 04:00:00 10,0 9,0 9 5 W - 10
29.05.2020 03:00:00 12,0 9,0 4 2 WSW - 10
29.05.2020 02:00:00 12,4 10,3 5 3 W 1021,7 10
29.05.2020 01:00:00 13,0 12,0 9 5 W - 10
29.05.2020 00:00:00 14,0 13,0 9 5 W - 10
28.05.2020 23:00:00 13,6 13,4 9 5 SSW 1021,7 10
28.05.2020 22:00:00 15,0 13,0 11 6 SE - 10
28.05.2020 21:00:00 17,0 12,0 15 8 E - 10
28.05.2020 20:00:00 18,2 8,2 15 8 E 1021,6 10
28.05.2020 19:00:00 19,0 8,0 18 10 E - 10
28.05.2020 18:00:00 20,0 7,0 22 12 E - 10
28.05.2020 17:00:00 20,8 7,8 24 13 ENE 1022,1 10
28.05.2020 16:00:00 22,0 8,0 21 11 E - 10
28.05.2020 15:00:00 22,0 8,0 22 12 E - 10
28.05.2020 14:00:00 22,2 8,7 26 14 ENE 1022,6 10
28.05.2020 13:00:00 24,0 4,0 13 7 WNW - 10
28.05.2020 12:00:00 23,0 7,0 9 5 WNW - 10
28.05.2020 11:00:00 22,2 6,4 13 7 W 1023,5 10
28.05.2020 10:00:00 20,0 8,0 13 7 SW - 10
28.05.2020 09:00:00 18,0 11,0 15 8 WSW - 10
28.05.2020 08:00:00 15,0 11,4 9 5 W 1025,5 14
28.05.2020 07:00:00 12,0 12,0 8 4 W - 10
28.05.2020 06:00:00 10,0 10,0 11 6 W - 10
28.05.2020 05:00:00 11,0 11,0 8 4 W 1025,5 10
28.05.2020 04:00:00 12,0 11,0 13 7 W - 10
28.05.2020 03:00:00 12,0 10,0 13 7 W - 10
28.05.2020 02:00:00 11,6 11,6 11 6 W 1025,6 10
28.05.2020 01:00:00 13,0 13,0 9 5 W - 10
28.05.2020 00:00:00 15,0 14,0 4 2 NW - 10
27.05.2020 23:00:00 14,4 13,4 4 2 E 1025,6 10
27.05.2020 22:00:00 15,0 13,0 9 5 E - 10
27.05.2020 21:00:00 16,0 13,0 9 5 E - 10
27.05.2020 20:00:00 17,2 12,9 16 9 E 1023,5 10
27.05.2020 19:00:00 18,0 12,0 21 11 E - 10
27.05.2020 18:00:00 19,0 10,0 21 11 E - 10
27.05.2020 17:00:00 20,2 11,2 26 14 E 1022,6 10
27.05.2020 16:00:00 21,0 12,0 26 14 E - 10
27.05.2020 15:00:00 21,0 13,0 28 15 E - 10
27.05.2020 14:00:00 20,2 12,7 26 14 ENE 1022,6 10
27.05.2020 13:00:00 20,0 13,0 16 9 ESE - 10
27.05.2020 12:00:00 18,0 11,0 24 13 E - 10
27.05.2020 11:00:00 20,0 9,3 16 9 ENE 1022,6 10
27.05.2020 10:00:00 22,0 6,0 9 5 N - 10
27.05.2020 09:00:00 19,0 11,0 9 5 W - 10
27.05.2020 08:00:00 14,6 11,6 4 2 NNE 1023,2 15
27.05.2020 07:00:00 11,0 11,0 5 3 WSW - 10
27.05.2020 06:00:00 11,0 11,0 5 3 WSW - 10
27.05.2020 05:00:00 12,0 10,6 9 5 W 1022,6 12
27.05.2020 04:00:00 12,0 12,0 9 5 W - 10
27.05.2020 03:00:00 13,0 13,0 9 5 W - 10
27.05.2020 02:00:00 15,0 14,7 5 3 NW 1022,9 11
27.05.2020 01:00:00 16,0 16,0 8 4 W - 10
27.05.2020 00:00:00 17,0 15,0 5 3 N - 10
26.05.2020 23:00:00 17,0 15,4 8 4 NNE 1022,6 11
26.05.2020 22:00:00 18,0 15,0 8 4 N - 10
26.05.2020 21:00:00 19,0 13,0 11 6 NNE - 10
26.05.2020 20:00:00 21,0 10,2 13 7 E 1021,2 12
26.05.2020 19:00:00 21,0 10,0 16 9 ENE - 10
26.05.2020 18:00:00 23,0 11,0 18 10 E - 10
26.05.2020 17:00:00 23,2 10,6 21 11 E 1021,0 12
26.05.2020 16:00:00 23,0 10,0 24 13 E - 10
26.05.2020 15:00:00 24,0 10,0 28 15 E - 10
26.05.2020 14:00:00 25,0 9,7 26 14 E 1021,2 14
26.05.2020 13:00:00 24,0 8,0 15 8 E - 10
26.05.2020 12:00:00 24,0 11,0 11 6 ESE - 10
26.05.2020 11:00:00 22,0 13,1 8 4 S 1022,4 14
26.05.2020 10:00:00 21,0 14,0 5 3 SE - 10
26.05.2020 09:00:00 19,0 17,0 4 2 W - 10
26.05.2020 08:00:00 17,2 14,1 11 6 W 1022,6 15
26.05.2020 07:00:00 15,0 14,0 11 6 WNW - 10
26.05.2020 06:00:00 13,0 13,0 9 5 WNW - 10
26.05.2020 05:00:00 12,2 12,2 9 5 W 1022,6 15
26.05.2020 04:00:00 14,0 13,0 8 4 SW - 10
26.05.2020 03:00:00 13,0 13,0 8 4 W - 10
26.05.2020 02:00:00 15,0 14,4 8 4 W 1022,8 15
26.05.2020 01:00:00 14,0 14,0 9 5 W - 10
26.05.2020 00:00:00 15,0 14,0 8 4 W - 10
25.05.2020 23:00:00 16,8 16,8 4 2 WNW 1022,8 15
25.05.2020 22:00:00 17,0 17,0 9 5 NE - 10
25.05.2020 21:00:00 18,0 18,0 13 7 ENE - 10
25.05.2020 20:00:00 18,8 17,5 21 11 ENE 1021,8 15
25.05.2020 19:00:00 19,0 16,0 24 13 E - 10
25.05.2020 18:00:00 20,0 14,0 26 14 E - 10
25.05.2020 17:00:00 21,4 13,8 29 16 E 1022,5 16
25.05.2020 16:00:00 21,0 15,0 31 17 E - 10
25.05.2020 15:00:00 21,0 17,0 31 17 E - 10
25.05.2020 14:00:00 22,0 17,4 31 17 E 1023,4 16
25.05.2020 13:00:00 22,0 18,0 29 16 E - 10
25.05.2020 12:00:00 22,0 16,0 28 15 E - 10
25.05.2020 11:00:00 21,0 14,4 28 15 ESE 1023,5 16
25.05.2020 10:00:00 22,0 16,0 28 15 E - 10
25.05.2020 09:00:00 21,0 13,0 4 2 E - 10
25.05.2020 08:00:00 16,8 13,7 5 3 WSW 1023,1 10
25.05.2020 07:00:00 13,0 13,0 5 3 WNW - 10
25.05.2020 06:00:00 11,0 11,0 8 4 WSW - 10
25.05.2020 05:00:00 11,2 11,2 8 4 W 1023,0 10
25.05.2020 04:00:00 13,0 13,0 8 4 W - 10
25.05.2020 03:00:00 - - - - - - -
25.05.2020 02:00:00 16,2 16,2 13 7 W 1022,6 10
25.05.2020 01:00:00 14,0 13,0 11 6 W - 10
25.05.2020 00:00:00 15,0 14,0 11 6 W - 10
24.05.2020 23:00:00 17,8 13,3 11 6 WNW 1023,5 10

tt = temperature
td = dewpoint
ff = wind speed
dd = wind direction
ppp = reduced air pressure
vv = visibility

Next stations